Location: Unspecified
(48.2082°N, 0.0000°E)
Time: 07:13:47
(UTC+00:00)

Vanguard 1 - Pass Details

Date: 30 June 2019
Orbit: 653 x 3830 km, 34.3° (Epoch: 20 July)

Event Time Altitude Azimuth Distance (km) Brightness Sun altitude
Rises 01:21:13 0° 240° (WSW) 7,967 14.3 -16.5°
Reaches altitude 10° 01:27:07 10° 235° (SW) 6,886 13.9 -16.2°
Maximum altitude 01:47:23 47° 172° (S) 3,678 12.6 -14.9°
Drops below altitude 10° 02:00:28 10° 104° (ESE) 4,610 13.6 -13.9°
Sets 02:03:31 0° 98° (E) 5,256 14.1 -13.7°
